Meteo Giornale » Osservazioni meteo Filippine » Ninoy Aquino Inter-National

ore: 06:00 - Osservazioni Meteo Ninoy Aquino Inter-National
Lat. 14° 31' N Lon. 121° 0' E Alt. 14 metri s.l.m.

molto_nuvoloso

28 °C

Molto Nuvoloso

Temp. 24 Ore

28 °C

32 °C

Sud-Ovest

9.3 Km/h

Dew point 26 °C

Umidità 88 %

Visibilità  10 Km

Il sole sorge alle ore 05:43

Il sole tramonta alle ore 18:07

Data e Ora Cielo e Fenomeni T °C DP °C Um. % Pres. hPa Vis. km Vento km/h
Oggi h: 06:00 molto_nuvoloso Molto Nuvoloso 28 26 88 1007 10 SO 9.3
Oggi h: 05:00 nuvoloso Nuvoloso 28 25 83 1007 10 SO 9.3
Oggi h: 04:00 nuvoloso Nuvoloso 29 26 83 1007 10 SO 14.8
Oggi h: 03:00 nuvoloso Nuvoloso 29 25 79 1007 10 SO 11.1
Oggi h: 02:00 molto_nuvoloso Molto Nuvoloso 29 26 83 1008 10 SO 11.1
Oggi h: 01:00 nuvoloso Nuvoloso 29 26 83 1008 10 SO 9.3
Oggi h: 00:00 molto_nuvoloso Molto Nuvoloso 29 25 79 1009 10 N 5.5
Ieri h: 23:00 nuvoloso Nuvoloso 29 25 79 1009 10 O/SO 13
Ieri h: 22:00 poco_nuvoloso Poco Nuvoloso 29 25 79 1010 10 SO 11.1
Ieri h: 21:00 poco_nuvoloso Poco Nuvoloso 30 25 74 1009 10 O/SO 18.5
Ieri h: 20:00 nuvoloso Nuvoloso 29 25 79 1009 10 O/SO 16.7
Ieri h: 19:00 molto_nuvoloso Molto Nuvoloso 30 26 79 1009 10 O 18.5
Ieri h: 18:00 coperto Coperto 30 27 84 1008 9 O 22.2
Ieri h: 17:00 coperto Coperto 30 26 79 1007 9 O 29.6
Ieri h: 16:00 molto_nuvoloso Molto Nuvoloso 31 25 70 1007 9 O 33.3
Ieri h: 15:00 poco_nuvoloso Poco Nuvoloso 31 26 74 1007 9 O 35.2
Ieri h: 14:00 poco_nuvoloso Poco Nuvoloso 32 26 70 1007 10 O 37
Ieri h: 13:00 poco_nuvoloso Poco Nuvoloso 32 26 70 1008 10 O 31.5
Ieri h: 12:00 poco_nuvoloso Poco Nuvoloso 32 26 70 1008 10 O 35.2
Ieri h: 11:00 poco_nuvoloso Poco Nuvoloso 32 26 70 1009 9 O 13
Ieri h: 10:00 poco_nuvoloso Poco Nuvoloso 32 25 66 1009 9 O/SO 33.3
Ieri h: 09:00 poco_nuvoloso Poco Nuvoloso 31 25 70 1009 9 O/SO 25.9
Ieri h: 08:00 poco_nuvoloso Poco Nuvoloso 30 26 79 1009 9 O/SO 22.2
Ieri h: 07:00 poco_nuvoloso Poco Nuvoloso 29 26 83 1009 8 O/SO 14.8